W0DXV Weather Reports


time (UTC)temp
C
wind
direction
speed
KPH
gust
KPH
rain 1hr
cm
rain 24hr
cm
rain mn
cm
humidity
%
barometer
mb
20260508115354 7 249 0.0 0.0 0.00 0.00 0.00 99 1013.9
20260508114850 7 252 0.0 0.0 0.00 0.00 0.00 99 1013.8
20260508114347 6 268 0.0 0.0 0.00 0.00 0.00 99 1013.7
20260508113844 6 256 0.0 0.0 0.00 0.00 0.00 99 1013.6
20260508113342 6 282 0.0 0.0 0.00 0.00 0.00 99 1013.4
20260508112838 6 282 0.0 1.6 0.00 0.00 0.00 99 1013.3
20260508112336 5 292 0.0 0.0 0.00 0.00 0.00 99 1013.3
20260508111832 5 292 0.0 0.0 0.00 0.00 0.00 99 1013.3
20260508111329 5 292 0.0 0.0 0.00 0.00 0.00 99 1013.2
20260508110826 5 292 0.0 0.0 0.00 0.00 0.00 99 1013.2
20260508110324 5 291 0.0 0.0 0.00 0.00 0.00 99 1013.2
20260508105824 5 291 0.0 0.0 0.00 0.00 0.00 99 1013.0
20260508105320 5 291 0.0 0.0 0.00 0.00 0.00 99 1012.7
20260508104817 5 291 0.0 0.0 0.00 0.00 0.00 99 1012.8
20260508104314 5 291 0.0 0.0 0.00 0.00 0.00 99 1012.6
20260508103811 5 291 0.0 0.0 0.00 0.00 0.00 99 1012.4
20260508103308 5 291 0.0 0.0 0.00 0.00 0.00 99 1012.4
20260508102806 5 291 0.0 0.0 0.00 0.00 0.00 99 1012.5
20260508102306 5 291 0.0 0.0 0.00 0.00 0.00 99 1012.2
20260508101801 5 291 0.0 0.0 0.00 0.00 0.00 99 1012.1
20260508101258 5 291 0.0 0.0 0.00 0.00 0.00 99 1012.4
20260508100755 5 291 0.0 0.0 0.00 0.00 0.00 99 1012.3
20260508100254 5 291 0.0 0.0 0.00 0.00 0.00 99 1012.2
20260508095749 5 291 0.0 0.0 0.00 0.00 0.00 99 1012.1
20260508095247 5 292 0.0 0.0 0.00 0.00 0.00 99 1012.1
20260508094744 5 287 0.0 0.0 0.00 0.00 0.00 99 1012.1
20260508094241 5 286 0.0 0.0 0.00 0.00 0.00 99 1011.9
20260508093738 6 287 0.0 0.0 0.00 0.00 0.00 99 1011.9
20260508093235 5 287 0.0 0.0 0.00 0.00 0.00 99 1012.0
20260508092732 6 287 0.0 0.0 0.00 0.00 0.00 99 1011.9
20260508092230 6 286 0.0 0.0 0.00 0.00 0.00 99 1011.7
20260508091728 6 286 0.0 0.0 0.00 0.00 0.00 99 1011.7
20260508091225 6 286 0.0 0.0 0.00 0.00 0.00 99 1011.6
20260508090723 6 286 0.0 0.0 0.00 0.00 0.00 99 1011.6
20260508090220 6 284 0.0 0.0 0.00 0.00 0.00 99 1011.6
20260508085716 6 284 0.0 0.0 0.00 0.00 0.00 99 1011.8
20260508085213 6 284 0.0 0.0 0.00 0.00 0.00 99 1011.7
20260508084709 6 283 0.0 0.0 0.00 0.00 0.00 99 1011.7
20260508084207 7 283 0.0 0.0 0.00 0.00 0.00 99 1011.6
20260508083704 6 283 0.0 0.0 0.00 0.00 0.00 99 1011.5
20260508083202 6 283 0.0 0.0 0.00 0.00 0.00 99 1011.5
20260508082656 6 283 0.0 0.0 0.00 0.00 0.00 99 1011.5
20260508082154 7 283 0.0 0.0 0.00 0.00 0.00 99 1011.3
20260508081651 7 283 0.0 0.0 0.00 0.00 0.00 99 1011.5
20260508081148 7 283 0.0 0.0 0.00 0.00 0.00 99 1011.3
20260508080645 7 283 0.0 0.0 0.00 0.00 0.00 99 1011.1
20260508080143 7 284 0.0 0.0 0.00 0.00 0.00 99 1011.1
20260508075639 7 282 0.0 0.0 0.00 0.00 0.00 99 1011.4
20260508075136 7 283 0.0 0.0 0.00 0.00 0.00 99 1011.1
20260508074634 7 283 0.0 0.0 0.00 0.00 0.00 99 1011.1
20260508074131 7 285 0.0 0.0 0.00 0.00 0.00 99 1011.1
20260508073628 7 285 0.0 0.0 0.00 0.00 0.00 99 1011.3
20260508073126 7 286 0.0 1.6 0.00 0.00 0.00 99 1010.9
20260508072621 7 284 0.0 1.6 0.00 0.00 0.00 99 1011.0
20260508072119 7 275 0.0 0.0 0.00 0.00 0.00 99 1011.1
20260508071616 7 274 0.0 0.0 0.00 0.00 0.00 99 1010.9
20260508071114 7 274 0.0 0.0 0.00 0.00 0.00 99 1011.0
20260508070611 7 275 0.0 0.0 0.00 0.00 0.00 99 1011.0
20260508070110 7 274 0.0 0.0 0.00 0.00 0.00 99 1010.9
20260508065607 7 274 0.0 0.0 0.00 0.00 0.00 99 1010.9
20260508065104 7 272 0.0 0.0 0.00 0.00 0.00 99 1010.7
20260508064602 8 272 0.0 0.0 0.00 0.00 0.00 99 1010.9
20260508064100 8 264 0.0 0.0 0.00 0.00 0.00 99 1011.0
20260508063557 8 265 0.0 0.0 0.00 0.00 0.00 99 1011.0
20260508063055 8 331 0.0 1.6 0.00 0.00 0.00 99 1011.0
20260508062552 8 331 0.0 0.0 0.00 0.00 0.00 99 1010.8
20260508062048 8 331 0.0 0.0 0.00 0.00 0.00 99 1010.9
20260508061546 8 331 0.0 0.0 0.00 0.00 0.00 99 1010.9
20260508061043 8 331 0.0 0.0 0.00 0.00 0.00 99 1010.7
20260508060540 8 331 0.0 0.0 0.00 0.00 0.00 99 1010.8
20260508060038 8 331 0.0 0.0 0.00 0.00 0.00 99 1010.9
20260508055533 8 331 0.0 0.0 0.00 0.00 0.00 99 1010.8
20260508055030 8 331 0.0 0.0 0.00 0.00 0.00 99 1010.8
20260508054526 8 331 0.0 0.0 0.00 0.00 0.00 99 1010.7
20260508054024 8 331 0.0 0.0 0.00 0.00 0.00 99 1010.9
20260508053520 8 331 0.0 0.0 0.00 0.00 0.00 99 1010.8
20260508053019 8 331 0.0 0.0 0.00 0.00 0.00 99 1010.6
20260508052515 8 331 0.0 1.6 0.00 0.00 0.00 99 1010.9
20260508052011 8 331 0.0 0.0 0.00 0.00 0.00 99 1010.7
20260508051503 8 331 0.0 0.0 0.00 0.00 0.00 99 1010.7
20260508050958 9 331 0.0 0.0 0.00 0.00 0.00 99 1010.4
20260508050455 9 331 0.0 0.0 0.00 0.00 0.00 99 1010.6
20260508045951 9 331 0.0 0.0 0.00 2.92 2.92 99 1010.6
20260508045448 9 331 0.0 0.0 0.00 2.92 2.92 99 1010.7
20260508044946 9 332 0.0 0.0 0.00 2.92 2.92 99 1010.7
20260508044443 9 332 0.0 0.0 0.00 2.92 2.92 99 1010.5
20260508043938 9 332 0.0 0.0 0.00 2.92 2.92 99 1010.5
20260508043436 10 333 0.0 0.0 0.00 2.92 2.92 99 1010.5
20260508042932 10 358 0.0 0.0 0.00 2.92 2.92 99 1010.3
20260508042430 10 359 0.0 0.0 0.00 2.92 2.92 99 1010.5
20260508041927 10 1 0.0 0.0 0.00 2.92 2.92 99 1010.6
20260508041423 10 1 0.0 0.0 0.00 2.92 2.92 99 1010.6
20260508040920 10 2 0.0 0.0 0.00 2.92 2.92 99 1010.3
20260508040417 10 264 0.0 0.0 0.00 2.92 2.92 99 1010.1
20260508035915 10 256 0.0 0.0 0.00 2.92 2.92 99 1010.4
20260508035412 10 256 0.0 0.0 0.00 2.92 2.92 99 1010.3
20260508034908 10 260 0.0 0.0 0.00 2.92 2.92 99 1010.1
20260508034406 10 271 0.0 0.0 0.00 2.92 2.92 99 1010.4
20260508033902 10 257 0.0 0.0 0.00 2.92 2.92 99 1010.2
20260508033401 10 257 0.0 0.0 0.00 2.92 2.92 99 1010.1
20260508032858 10 262 0.0 0.0 0.00 2.92 2.92 99 1010.2
20260508032355 10 262 0.0 1.6 0.00 2.92 2.92 99 1010.1
20260508031851 10 159 0.0 0.0 0.00 2.92 2.92 99 1010.2
20260508031349 10 161 0.0 0.0 0.00 2.92 2.92 99 1010.1
20260508030844 10 16 1.6 1.6 0.00 2.92 2.92 99 1010.2
20260508030342 10 19 1.6 1.6 0.00 2.92 2.92 99 1010.0
20260508025838 11 305 0.0 1.6 0.00 2.92 2.92 99 1010.1
20260508025335 11 259 0.0 0.0 0.00 2.92 2.92 99 1009.9
20260508024832 11 259 0.0 0.0 0.00 2.92 2.92 99 1009.8
20260508024329 10 313 0.0 0.0 0.00 2.92 2.92 99 1009.7
20260508023826 11 313 0.0 0.0 0.00 2.92 2.92 99 1010.0
20260508023323 11 313 0.0 0.0 0.00 2.92 2.92 99 1009.7
20260508022819 11 313 0.0 0.0 0.00 2.92 2.92 99 1010.0
20260508022315 11 292 0.0 0.0 0.00 2.92 2.92 99 1009.9
20260508021812 11 292 0.0 0.0 0.00 2.92 2.92 99 1009.5
20260508021308 11 246 0.0 0.0 0.00 2.92 2.92 99 1009.5
20260508020804 11 246 0.0 0.0 0.00 2.92 2.92 99 1009.3
20260508020303 11 246 0.0 0.0 0.00 2.92 2.92 99 1009.5
20260508015759 11 246 0.0 0.0 0.00 2.92 2.92 99 1009.2
20260508015256 11 246 0.0 0.0 0.00 2.92 2.92 99 1009.1
20260508014753 11 246 0.0 0.0 0.00 2.92 2.92 99 1009.0
20260508014250 12 247 0.0 0.0 0.00 2.92 2.92 99 1009.1
20260508013746 12 245 0.0 0.0 0.00 2.92 2.92 99 1008.9
20260508013242 12 245 1.6 1.6 0.00 2.92 2.92 99 1008.8
20260508012740 12 245 0.0 0.0 0.00 2.92 2.92 99 1008.7
20260508012237 12 245 1.6 1.6 0.00 2.92 2.92 99 1008.5
20260508011735 12 258 1.6 1.6 0.00 2.92 2.92 99 1008.5
20260508011232 12 281 0.0 0.0 0.00 2.92 2.92 99 1008.2
20260508010729 12 281 0.0 0.0 0.00 2.92 2.92 99 1008.2
20260508010227 12 281 0.0 0.0 0.00 2.92 2.92 99 1008.0
20260508005724 12 281 0.0 0.0 0.00 2.92 2.92 99 1007.9
20260508005221 12 19 1.6 1.6 0.00 2.92 2.92 99 1007.8
20260508004716 12 266 0.0 0.0 0.00 2.92 2.92 99 1007.7
20260508004212 13 265 1.6 1.6 0.00 2.92 2.92 99 1007.6
20260508003709 13 250 0.0 0.0 0.00 2.92 2.92 99 1007.7
20260508003207 13 250 0.0 0.0 0.00 2.92 2.92 99 1007.7
20260508002703 13 250 0.0 1.6 0.00 2.92 2.92 99 1007.7
20260508002201 13 253 0.0 0.0 0.00 2.92 2.92 99 1007.4
20260508001656 13 259 0.0 0.0 0.00 2.92 2.92 99 1007.4
20260508001152 13 267 0.0 1.6 0.00 2.92 2.92 99 1007.6
20260508000648 13 263 0.0 0.0 0.00 2.92 2.92 99 1007.6
20260508000145 13 252 0.0 0.0 0.00 2.92 2.92 99 1007.6
20260507235642 13 251 0.0 1.6 0.00 2.92 2.92 99 1007.4
20260507235139 13 333 0.0 1.6 0.00 2.92 2.92 99 1007.6
20260507234636 13 23 0.0 1.6 0.00 2.92 2.92 99 1007.6
20260507234132 13 332 0.0 1.6 0.00 2.92 2.92 99 1007.7
20260507233630 13 41 1.6 1.6 0.00 2.92 2.92 98 1007.2
20260507233128 13 28 0.0 1.6 0.00 2.92 2.92 98 1007.4
20260507232625 13 6 1.6 1.6 0.00 2.92 2.92 98 1007.6
20260507232122 13 327 0.0 0.0 0.00 2.92 2.92 98 1007.3
20260507231618 13 272 1.6 1.6 0.00 2.92 2.92 98 1007.0
20260507231115 13 290 0.0 0.0 0.00 2.92 2.92 98 1007.2
20260507230611 13 304 0.0 0.0 0.00 2.92 2.92 98 1007.0
20260507230109 13 180 1.6 1.6 0.00 2.92 2.92 98 1006.6
20260507225603 13 20 0.0 0.0 0.00 2.92 2.92 98 1006.4
20260507225100 13 208 1.6 1.6 0.00 2.92 2.92 98 1006.5
20260507224555 13 333 0.0 1.6 0.00 2.92 2.92 98 1006.4
20260507224052 13 64 1.6 1.6 0.00 2.92 2.92 98 1006.2
20260507223548 13 28 1.6 1.6 0.00 2.92 2.92 98 1006.3
20260507223046 13 94 1.6 1.6 0.00 2.92 2.92 98 1006.3
20260507222543 14 244 0.0 0.0 0.00 2.92 2.92 98 1006.1
20260507222039 13 322 0.0 0.0 0.00 2.92 2.92 97 1006.1
20260507221535 14 35 1.6 1.6 0.00 2.92 2.92 97 1006.1
20260507221032 14 30 1.6 3.2 0.00 2.92 2.92 97 1005.8
20260507220529 14 92 6.4 8.0 0.00 2.92 2.92 98 1005.6
20260507220027 14 356 6.4 9.7 0.00 2.92 2.92 98 1005.7
20260507215523 14 36 9.7 12.9 0.00 2.92 2.92 98 1005.5
20260507215021 14 121 3.2 3.2 0.00 2.92 2.92 98 1005.6
20260507214518 14 98 6.4 8.0 0.13 2.92 2.92 98 1005.9
20260507214014 13 37 1.6 3.2 0.71 2.92 2.92 98 1005.9
20260507213510 14 63 6.4 8.0 1.07 2.90 2.90 98 1005.9
20260507213007 14 256 0.0 0.0 1.07 2.79 2.79 98 1006.1
20260507212503 14 2 4.8 4.8 0.43 2.69 2.69 98 1005.5
20260507212000 14 48 6.4 8.0 0.00 2.62 2.62 98 1005.2
20260507211456 15 338 3.2 4.8 0.00 2.62 2.62 98 1005.3
20260507210953 15 186 1.6 1.6 0.00 2.62 2.62 97 1005.4
20260507210450 15 95 4.8 8.0 0.00 2.62 2.62 97 1005.1
20260507205947 15 34 8.0 9.7 0.00 2.62 2.62 97 1005.0
20260507205444 15 30 6.4 8.0 0.00 2.62 2.62 97 1005.2
20260507204940 15 62 3.2 3.2 0.00 2.62 2.62 98 1005.1
20260507204436 15 130 4.8 4.8 0.18 2.62 2.62 98 1005.1
20260507203934 15 30 4.8 8.0 0.18 2.62 2.62 98 1005.2
20260507203432 15 299 3.2 3.2 0.30 2.59 2.59 98 1005.6
20260507202928 15 53 4.8 4.8 0.71 2.59 2.59 98 1005.2
20260507202425 15 9 11.3 12.9 0.61 2.54 2.54 98 1005.4
20260507201921 15 88 1.6 3.2 0.48 2.46 2.46 98 1005.1
20260507201416 15 349 6.4 8.0 1.07 2.44 2.44 98 1005.1
20260507200913 15 139 3.2 3.2 0.89 2.39 2.39 97 1005.4
20260507200408 15 18 3.2 3.2 0.30 2.26 2.26 97 1005.4
20260507195904 15 47 1.6 3.2 1.27 2.24 2.24 97 1005.3
20260507195402 15 115 1.6 1.6 1.68 2.18 2.18 97 1005.0
20260507194859 15 92 4.8 4.8 4.98 2.03 2.03 96 1005.2
20260507194356 16 237 4.8 4.8 6.60 1.91 1.91 95 1005.3
20260507193852 17 296 3.2 4.8 2.46 1.22 1.22 92 1005.4
20260507193349 18 37 11.3 14.5 0.00 0.81 0.81 88 1004.7
20260507192845 18 50 4.8 4.8 0.00 0.81 0.81 87 1004.3
20260507192342 18 195 1.6 3.2 0.00 0.81 0.81 87 1004.0
20260507191838 19 95 9.7 11.3 0.00 0.81 0.81 87 1004.4
20260507191335 20 38 4.8 4.8 0.00 0.81 0.81 86 1004.1
20260507190832 20 18 1.6 3.2 0.00 0.81 0.81 87 1003.8
20260507190330 20 119 4.8 4.8 0.00 0.81 0.81 86 1003.8
20260507185829 20 78 4.8 4.8 0.00 0.81 0.81 86 1004.0
20260507185325 21 68 9.7 12.9 0.00 0.81 0.81 83 1004.1
20260507184822 22 128 4.8 9.7 0.00 0.81 0.81 77 1004.2
20260507184320 22 321 0.0 1.6 0.00 0.81 0.81 77 1004.5
20260507183817 22 230 1.6 1.6 0.00 0.81 0.81 78 1004.4
20260507183314 22 91 1.6 1.6 0.00 0.81 0.81 79 1004.5
20260507182811 22 66 1.6 1.6 0.00 0.81 0.81 80 1004.3
20260507182307 22 91 1.6 1.6 0.00 0.81 0.81 83 1004.4
20260507181803 22 147 0.0 1.6 0.00 0.81 0.81 81 1004.6
20260507181259 22 45 0.0 1.6 0.00 0.81 0.81 80 1004.3
20260507180756 22 246 0.0 1.6 0.00 0.81 0.81 82 1004.4
20260507180253 22 200 0.0 1.6 0.00 0.81 0.81 82 1004.4
20260507175748 22 225 1.6 1.6 0.00 0.81 0.81 81 1004.6
20260507175246 22 212 1.6 1.6 0.00 0.81 0.81 78 1004.4
20260507174743 22 213 1.6 1.6 0.00 0.81 0.81 77 1004.6
20260507174241 21 244 0.0 0.0 0.00 0.81 0.81 86 1004.6
20260507173739 22 243 1.6 1.6 0.00 0.81 0.81 83 1004.8
20260507173235 22 244 0.0 1.6 0.00 0.81 0.81 82 1004.7
20260507172732 22 163 1.6 1.6 0.00 0.81 0.81 79 1004.9
20260507172229 23 243 0.0 1.6 0.00 0.81 0.81 81 1004.9
20260507171728 22 257 1.6 1.6 0.00 0.81 0.81 81 1005.2
20260507171226 22 53 4.8 4.8 0.00 0.81 0.81 81 1005.2
20260507170723 22 264 1.6 1.6 0.00 0.81 0.81 88 1005.3
20260507170220 21 261 1.6 1.6 0.00 0.81 0.81 89 1005.4
20260507165715 20 323 1.6 1.6 0.00 0.81 0.81 92 1005.4
20260507165212 20 262 0.0 0.0 0.00 0.81 0.81 94 1005.3
20260507164708 20 248 0.0 0.0 0.00 0.81 0.81 93 1005.5
20260507164206 20 298 0.0 1.6 0.00 0.81 0.81 93 1005.3
20260507163702 19 79 0.0 1.6 0.00 0.81 0.81 95 1005.4
20260507163200 19 237 0.0 0.0 0.00 0.81 0.81 97 1005.5
20260507162656 19 236 1.6 1.6 0.00 0.81 0.81 96 1005.8
20260507162152 19 241 1.6 1.6 0.00 0.81 0.81 97 1005.2
20260507161648 19 7 1.6 1.6 0.00 0.81 0.81 98 1005.2
20260507161145 18 41 0.0 0.0 0.00 0.81 0.81 99 1005.1
20260507160642 18 54 3.2 3.2 0.00 0.81 0.81 99 1005.0
20260507160138 18 322 1.6 1.6 0.00 0.81 0.81 99 1005.0
20260507155634 18 242 0.0 0.0 0.00 0.81 0.81 99 1004.9
20260507155131 18 137 0.0 1.6 0.00 0.81 0.81 99 1005.1
20260507154627 18 273 0.0 0.0 0.00 0.81 0.81 99 1005.2
20260507154125 18 250 0.0 0.0 0.00 0.81 0.81 99 1005.3
20260507153621 18 274 0.0 0.0 0.00 0.81 0.81 99 1005.5
20260507153118 18 99 1.6 1.6 0.00 0.81 0.81 99 1005.3
20260507152614 18 247 0.0 0.0 0.00 0.81 0.81 99 1005.7
20260507152110 18 247 0.0 0.0 0.00 0.81 0.81 99 1005.7
20260507151606 18 245 0.0 0.0 0.00 0.81 0.81 99 1005.7
20260507151103 17 268 0.0 0.0 0.00 0.81 0.81 99 1006.0
20260507150601 17 270 0.0 0.0 0.00 0.81 0.81 99 1006.3
20260507150057 18 226 0.0 0.0 0.00 0.81 0.81 99 1006.1
20260507145552 18 231 0.0 1.6 0.00 0.81 0.81 99 1006.2
20260507145050 18 210 0.0 0.0 0.00 0.81 0.81 99 1006.3
20260507144546 17 219 0.0 0.0 0.00 0.81 0.81 99 1006.5
20260507144045 17 215 0.0 0.0 0.00 0.81 0.81 99 1006.4
20260507143541 17 234 0.0 0.0 0.00 0.81 0.81 99 1006.5
20260507143039 17 234 1.6 1.6 0.00 0.81 0.81 99 1006.1
20260507142539 17 220 0.0 1.6 0.13 0.81 0.81 99 1005.7
20260507142036 17 201 0.0 0.0 0.13 0.81 0.81 99 1005.7
20260507141532 17 218 0.0 0.0 0.00 0.79 0.79 99 1005.6
20260507141029 17 246 1.6 1.6 0.00 0.79 0.79 99 1006.1
20260507140526 17 201 0.0 0.0 0.18 0.79 0.79 99 1005.8
20260507140023 17 268 0.0 0.0 0.30 0.79 0.79 99 1005.9
20260507135520 17 270 0.0 0.0 0.30 0.76 0.76 99 1006.0
20260507135017 17 273 0.0 0.0 0.18 0.74 0.74 99 1006.1
20260507134514 17 246 0.0 0.0 0.13 0.71 0.71 99 1006.1
20260507134009 17 246 1.6 1.6 0.13 0.71 0.71 99 1005.9
20260507133505 17 287 0.0 0.0 0.00 0.69 0.69 99 1005.5
20260507133004 17 249 0.0 0.0 0.00 0.69 0.69 99 1005.7
20260507132500 17 249 0.0 0.0 0.00 0.69 0.69 99 1005.6
20260507131956 17 211 0.0 0.0 0.18 0.69 0.69 99 1005.4
20260507131454 17 211 0.0 0.0 0.18 0.69 0.69 99 1005.1
20260507130950 17 213 0.0 0.0 0.13 0.66 0.66 99 1005.1
20260507130447 17 213 0.0 0.0 0.30 0.66 0.66 99 1005.6
20260507125946 17 212 0.0 0.0 0.30 0.64 0.64 99 1005.8
20260507125444 17 210 0.0 0.0 0.13 0.61 0.61 99 1005.9
20260507124941 17 210 0.0 0.0 0.18 0.58 0.58 99 1006.5
20260507124437 17 211 0.0 0.0 0.48 0.58 0.58 99 1006.6
20260507123936 17 223 0.0 0.0 0.48 0.56 0.56 99 1006.9
20260507123433 17 220 0.0 0.0 0.30 0.51 0.51 99 1006.9
20260507122929 17 214 1.6 1.6 0.43 0.48 0.48 99 1006.8
20260507122424 17 238 0.0 0.0 0.61 0.46 0.46 99 1007.4
20260507121921 17 237 0.0 0.0 0.48 0.41 0.41 99 1007.3
20260507121416 17 237 0.0 0.0 0.18 0.36 0.36 99 1007.4
20260507120913 17 237 0.0 0.0 0.00 0.33 0.33 99 1007.1
20260507120409 17 236 0.0 1.6 0.00 0.33 0.33 99 1007.0
20260507115906 17 236 0.0 0.0 0.13 0.33 0.33 99 1006.7